Content
SEND FEEDBACK

Daily
Averages
Monthly
Summary
United States of America

AGANA, GUAM


Home > North America > United States > Guam
Elevation: 74 meters     Latitude: 13 29N     Longitude: 144 48E

WEATHER
 
SELECT A DAY
Number of Records: 208,860;   Date Range: 1/1/95 - 7/20/14
 
SHARE

PRINT THIS DATA

[ ← Previous Day ]
WEATHER ALMANAC - 7 DECEMBER, 2013
[ Next Day → ]
[ °F ]   °C
Weather ElementAverageHighLow
Temperature27.3 °C30 °C (11:54 am)25 °C (6:54 am)
Dewpoint24.4 °C26 °C (10:13 am)22.8 °C (1:54 am)
Humidity84.7 %97 % (1:54 pm)70 % (12:04 pm)
Barometer1011.2 hPa1013.2 hPa (10:01 am)1009.5 hPa (3:54 am)
Wind Speed12.1 km/h20.4 km/h (10:13 am)
Wind Gust31.5 km/h (1:32 pm)
Weather ElementAverage
Visibility14.8 km
Wind DirectionENE (70 °)

Weather ElementTotal
Precipitation11.18 mm
Cooling Degree Days9.2 (Base 18.3)
Growing Degree Days17.5 (Base 10)
Averaged from 35 records on 7 December, 2013
WEATHER CONDITIONS BREAKOUT
WIND DIRECTION BREAKOUT
WEATHER BY HOUR - 7 DECEMBER, 2013
[ °F ]   °C
Local TimeTemperatureDewpointHumidityBarometerVisibilityWind DirectionWind SpeedGust SpeedPrecipitationEventsConditions
1:54 AM26.7 °C22.8 °C79 %1010.2 hPa16.1 kmENE (70°)14.8 km/hClear
2:54 AM26.1 °C22.8 °C82 %1009.8 hPa16.1 kmENE (60°)11.1 km/hClear
3:54 AM25.6 °C22.8 °C84 %1009.5 hPa16.1 kmENE (60°)9.3 km/hClear
4:54 AM25.6 °C22.8 °C84 %1009.5 hPa16.1 kmENE (60°)9.3 km/hClear
5:54 AM25.6 °C22.8 °C84 %1009.8 hPa16.1 kmENE (60°)11.1 km/hClear
6:54 AM25 °C22.8 °C88 %1010.8 hPa16.1 kmCalmClear
7:45 AM27 °C23 °C79 %1012.2 hPa16.1 kmNE (50°)9.3 km/hMostly Cloudy
7:54 AM27.2 °C23.3 °C79 %1011.5 hPa16.1 kmNE (50°)9.3 km/hMostly Cloudy
8:47 AM29 °C24 °C74 %1012.9 hPa16.1 kmENE (60°)16.7 km/hPartly Cloudy
8:54 AM28.9 °C23.9 °C74 %1012.2 hPa16.1 kmNE (50°)18.5 km/hScattered Clouds
9:54 AM28.3 °C24.4 °C79 %1012.5 hPa16.1 kmENE (60°)16.7 km/h0 mmMostly Cloudy
10:01 AM28 °C24 °C79 %1013.2 hPa16.1 kmNE (50°)16.7 km/hScattered Clouds
10:13 AM28 °C26 °C89 %1013.2 hPa14.5 kmENE (70°)20.4 km/h0 mmRainLight Rain
10:23 AM28 °C25 °C84 %1013.2 hPa16.1 kmENE (60°)13 km/h0 mmMostly Cloudy
10:54 AM29.4 °C25 °C77 %1012.2 hPa16.1 kmEast (80°)13 km/h0 mmMostly Cloudy
11:54 AM30 °C25 °C74 %1011.2 hPa16.1 kmEast (80°)18.5 km/hScattered Clouds
12:04 PM30 °C24 °C70 %1011.9 hPa16.1 kmEast (80°)16.7 km/hMostly Cloudy
12:29 PM29 °C24 °C74 %1011.9 hPa16.1 kmEast (90°)16.7 km/hMostly Cloudy
12:54 PM28.3 °C25 °C82 %1010.8 hPa16.1 kmENE (70°)13 km/h0 mmThunderstormThunderstorm
1:18 PM27 °C25 °C89 %1010.8 hPa16.1 kmSSE (150°)5.6 km/hThunderstormThunderstorm
1:27 PM27 °C26 °C94 %1010.8 hPa4 kmSouth (190°)9.3 km/h0.25 mmRainHeavy Rain
1:32 PM27 °C26 °C94 %1011.2 hPa2.4 kmSE (140°)13 km/h31.5 km/h1.27 mmRainHeavy Rain
1:44 PM26 °C25 °C94 %1011.2 hPa3.2 kmSSE (150°)5.6 km/h3.56 mmRainHeavy Rain
1:54 PM26.1 °C25.6 °C97 %1010.5 hPa16.1 kmCalm4.57 mmOvercast
2:15 PM27 °C26 °C94 %1010.8 hPa16.1 kmCalmMostly Cloudy
2:54 PM27.2 °C25.6 °C91 %1010.2 hPa11.3 kmENE (60°)13 km/h0.25 mmRainRain
3:54 PM26.7 °C25 °C90 %1010.2 hPa16.1 kmNE (40°)9.3 km/h1.27 mmOvercast
4:54 PM26.7 °C25 °C90 %1010.5 hPa16.1 kmNE (50°)11.1 km/h0 mmScattered Clouds
5:54 PM26.7 °C25.6 °C94 %1010.8 hPa16.1 kmNE (50°)13 km/h0 mmMostly Cloudy
6:54 PM26.7 °C24.4 °C87 %1011.2 hPa16.1 kmENE (70°)16.7 km/hClear
7:54 PM27.2 °C24.4 °C85 %1011.2 hPa16.1 kmENE (70°)16.7 km/hClear
8:54 PM27.2 °C25 °C88 %1011.2 hPa16.1 kmENE (70°)16.7 km/hOvercast
9:54 PM26.7 °C25 °C90 %1011.2 hPa16.1 kmEast (80°)16.7 km/hClear
10:54 PM26.7 °C24.4 °C87 %1011.2 hPa16.1 kmEast (90°)11.1 km/hMostly Cloudy
11:54 PM26.7 °C24.4 °C87 %1011.2 hPa16.1 kmEast (80°)11.1 km/hClear
Hourly data recorded from PGUM, located 0 kilometers away from Agana, Guam







STORIES FROM OUR PARTNERS